RH
38 41 47 44 40 36 35 32 29 28 28 24 20 18 24 26 25 26 27 27 25 23 20 16 17 26 31 32 31 31 28 23 22 23 18 15 13 13 13 20 21 21 18
41 44 49 46 41 36 34 32 31 30 29 26 33 36 31 30 28 24 25 25 20 18 15 14 17 20 23 28 27 26 24 22 21 19 17 15 15 15 16 19 22 22 20
44 46 50 46 41 38 35 34 34 31 29 25 33 36 31 27 24 28 23 19 17 17 16 15 15 16 16 20 22 22 21 20 18 16 16 16 15 15 14 16 20 21 17
45 45 48 48 43 39 36 37 36 34 30 26 26 31 35 40 38 32 26 19 17 15 15 16 16 15 13 15 17 17 16 15 14 13 12 13 13 12 12 17 17 20 18
49 49 53 52 48 42 39 39 39 35 33 29 30 35 40 41 39 31 28 22 20 16 16 15 14 15 15 16 16 15 16 15 13 12 12 10 10 10 12 14 21 23 23
60 60 59 56 55 45 45 44 44 37 35 33 31 34 39 39 46 42 39 33 31 27 24 23 23 22 21 21 20 19 20 19 17 17 18 19 20 20 20 19 19 21 24
54 54 57 56 52 48 48 48 47 41 37 35 34 36 41 39 42 47 44 39 36 32 31 30 30 29 29 30 31 31 31 31 30 30 30 30 31 30 29 27 25 24 27
48 48 49 52 52 52 50 50 49 43 40 38 36 38 40 41 43 46 45 35 31 29 27 27 29 31 31 31 30 29 28 29 28 28 28 28 29 29 31 32 33 32 31
46 46 47 53 54 54 52 52 49 45 43 40 39 38 40 41 43 47 42 36 36 32 33 36 38 38 38 37 36 35 34 33 34 33 31 30 29 29 28 29 30 34 33
45 48 50 51 55 56 57 52 51 47 50 44 41 37 37 38 40 40 39 39 35 34 37 39 42 47 46 43 42 39 37 34 31 29 26 26 25 26 28 31 33 32 37
46 51 52 55 55 57 58 54 52 48 52 49 42 40 36 36 38 37 36 35 35 37 40 42 44 44 42 39 37 35 32 28 24 24 25 25 26 27 28 30 32 33 36
44 49 53 57 56 58 56 54 51 48 54 54 48 40 38 36 37 36 35 36 40 40 41 44 45 42 37 38 34 32 32 28 25 25 26 25 26 27 28 30 30 30 32
44 47 51 54 57 56 56 56 55 49 52 55 54 45 39 38 37 39 42 42 44 43 46 47 44 41 39 35 33 30 27 26 28 30 28 24 22 22 23 24 26 25 27
41 46 46 49 55 58 56 54 55 53 55 58 57 52 47 45 44 45 49 49 47 46 47 47 45 42 37 31 30 29 29 29 27 22 18 16 16 16 22 24 25 24 25
36 43 46 48 52 57 60 57 56 57 58 63 59 60 55 52 50 50 52 51 50 48 46 47 41 33 31 30 30 27 24 21 18 16 16 16 17 18 19 22 24 26 31
37 38 44 47 46 48 53 57 60 61 62 62 66 64 60 59 56 56 55 55 52 49 48 39 31 31 32 29 25 21 19 19 18 17 17 18 20 22 23 25 27 28 29
38 38 38 42 44 45 49 55 60 62 64 62 69 72 67 64 61 57 55 54 52 47 37 33 36 34 30 25 21 19 17 15 15 16 17 19 21 24 25 26 27 28 28
39 37 37 38 43 47 51 54 59 62 64 69 70 73 70 67 62 58 55 53 45 36 33 34 34 32 25 20 17 14 12 15 17 18 21 22 22 21 21 20 19 19 19
41 39 37 36 38 42 49 55 61 61 64 65 66 73 70 68 62 54 55 43 36 34 35 32 29 24 19 16 13 14 17 18 19 22 23 23 20 19 18 18 18 19 19
39 41 39 37 37 39 42 48 54 58 62 62 67 73 71 67 59 53 42 36 37 39 35 30 25 21 17 13 14 18 20 19 21 24 23 21 20 22 22 20 20 19 19
37 41 41 40 38 40 43 47 48 50 54 62 67 73 74 67 57 43 38 40 44 42 38 31 26 20 14 14 16 20 20 21 22 23 23 22 21 23 22 20 21 21 21
39 41 41 42 44 44 44 47 51 52 56 62 69 74 73 63 50 40 43 47 44 41 38 35 29 20 14 16 19 22 23 24 25 24 24 23 23 23 24 24 23 23 22
38 41 40 44 46 47 49 51 58 62 59 63 67 70 64 59 44 45 49 47 46 46 44 40 31 22 16 17 21 24 25 27 26 25 26 25 25 25 24 24 24 23 20
36 41 42 44 46 46 51 54 55 60 59 58 63 64 62 51 47 50 51 53 52 50 48 44 36 25 17 19 23 26 27 27 27 27 26 25 24 25 25 24 23 20 17
37 42 43 46 48 50 54 59 54 64 65 56 59 59 50 46 49 53 55 55 54 53 48 45 40 27 19 20 25 28 29 29 29 28 27 25 26 25 25 23 20 17 15
40 44 45 46 49 53 58 58 57 63 64 58 59 52 46 47 51 54 55 57 57 56 51 47 40 29 22 22 27 28 28 29 29 29 31 31 29 27 23 21 19 17 17